DELTA 1 DEB, 17000

Orbit data source: Space-Track

DELTA 1 DEB, 17000 is space debris in LEO originally from a launch on Thu, 29 Jul 1976 UTC launched from the Air Force Western Test Range (AFWTR). Debris objects in space refer to the collection of defunct objects orbiting the Earth. Examples of debris include non-operational satellites, rocket bodies, and fragments generated from explosions, collisions, or faulty payload assembly.

Loading next visibility...
Identifier
17000, 1976-077EX
Orbit
LEO
Country
Flag of USUS
Related business
Manufacturer
Unknown
Mission
Spacecraft
Bus & Motor
Unknown
Mass
Unknown
Launch date (UTC)
1976-07-29 (49 years ago)
Launch vehicle
Unknown
Launch site
Air Force Western Test Range (AFWTR)
Object type
Payload
Rocket body
Debris
Shape & HBR
Unknown shape, 0.1 m
Radar Cross Section
Small (<0.1 m²)

Expand to show TLE details & history
Last TLE update: 7 hours ago

TLE from 7 hours ago
0 DELTA 1 DEB
1 17000U 76077EX  25289.53027032  .00000033  00000-0  11282-2 0  9995
2 17000 102.4460  33.6603 0665004  19.7720   3.9924 11.32377805709173
Epoch: 2025-10-16T12:43Z
TLE epoch observation values (Epoch: 2025-10-16T12:43:35.355Z)
Latitude
23.76019°
Longitude
171.92656°
Altitude
1,445.419 km
Speed
7.374 km/s
True Right ascension
01h 52m 27s
True Declination
23° 38' 41"
Sunlit
Object was in full shadow at epoch
Visualization orbit readout
Latitude
Unknown
Longitude
Unknown
Altitude
Unknown
Speed
Unknown
Apparent Right ascension
Unknown
Apparent Declination
Unknown
Sunlit
N/A
Visualization observer readout
Local Sidereal Time
14:53:46
Azimuth
Unknown
Elevation
Unknown
Doppler factor
Unknown
Orbital elements
Apogee altitude
2,553.221 km
Perigee altitude
1,439.412 km
Semi-major axis
8,374.453 km
Eccentricity
0.0665
Inclination
102.446°
RAAN
33.6603°
Arg. of periapsis
19.772°
True anomaly
4.57073°
Mean anomaly
3.9924°
Eccentric anomaly
4.27653°
Mean motion
2.8321 °/min
Orbital period
127.11 mins
BSTAR
0.0011282
Loading maneuver chart data...
Computing Atmospheric mass density...
Loading historical data...
Loading historical data...
Loading historical data...
Loading historical data...
Loading historical data...
Loading historical data...
Loading historical data...

Documentation

Showing up to 5 results
|